Location: Moy Burn
(57.3833°N, 4.0667°W)
Time: 10:05:09
(UTC+00:00)

Cosmos 1441 Rocket - Pass Details

Date: 08 August 2020
Orbit: 497 x 540 km, 81.1° (Epoch: 18 September)

Event Time Altitude Azimuth Distance (km) Brightness Sun altitude
Rises 21:09:42 0° 195° (SSW) 2,618 6.5 -6.7°
Reaches altitude 10° 21:11:50 10° 196° (SSW) 1,729 5.6 -6.9°
Maximum altitude 21:15:38 84° 286° (WNW) 516 3.2 -7.3°
Drops below altitude 10° 21:19:25 10° 14° (NNE) 1,724 6.3 -7.7°
Sets 21:21:32 0° 16° (NNE) 2,609 7.2 -7.9°
